STARLINK-35096 (65479 NORAD) Tracking and Keplerian Element Data

This shows tracking and keplerian element data for the satellite.

Feedback or suggestion? Click here.




ElementValue
Catalog65479
NameSTARLINK-35096
Epoch Orbit1780
Epoch Day354.17526455
Epoch Year2025
RAAN267.2376
Inclination53.1594
Eccentricity4.94E-05
Argument of Perigee357.9418
Mean Anonmoly2.158
Mean Motion15.30214833
Decay Rate0.00024592
L11 65479U 25195X 25354.17526455 .00024592 00000+0 83930-3 0 9994
L22 65479 53.1594 267.2376 0000494 357.9418 2.1580 15.30214833 17809



Live tracking and technical data element details for STARLINK-35096 (NORAD 65479). STARLINK-35096 can be tracked NOW for your location showing map with azimuth and elevation plus other details from your city location.







IsCatalogInMostPopularTable: catalog: 65479, numindb: 7
Update: records affected: 1



GetName: 65479 STARLINK-35096

Hit Count: updated at: Tue, 21 Apr 2026 21:40:44 GMT